Theta_e
328 326 327 328 327 326 326 329 331 330 329 329 329 328 328 327 325 326 326 322 323 324 320 317 317 316 320 322 323 326 326 326 327 328 327 325 324 325 325 326 326 328
326 325 326 326 325 325 327 328 330 329 327 325 324 325 326 325 324 325 325 322 324 324 321 318 318 319 323 323 324 325 325 325 326 326 326 326 325 326 325 324 325 327
325 325 325 323 324 328 329 327 327 325 322 322 323 324 326 325 325 325 325 325 325 324 322 322 321 323 325 325 324 325 325 325 325 325 325 325 326 327 325 324 325 326
325 325 327 326 326 328 328 324 322 320 320 324 326 325 325 325 325 325 325 325 324 321 321 322 322 323 324 324 324 325 325 324 324 324 324 323 324 325 326 326 325 326
323 323 326 327 326 325 324 323 323 321 321 324 326 325 325 326 326 326 325 324 322 320 321 323 323 323 322 322 323 323 323 324 323 323 323 323 322 322 324 326 325 326
322 322 323 324 324 320 321 324 325 325 323 324 326 326 326 326 326 326 325 323 321 320 321 322 323 322 321 321 322 322 322 322 321 321 321 322 322 321 323 325 325 325
323 323 321 322 322 319 321 325 326 326 325 324 325 323 321 323 326 326 324 321 320 319 319 320 320 320 320 320 320 320 320 320 319 319 320 321 323 323 323 324 324 325
324 325 324 325 325 323 324 326 326 325 325 325 324 321 319 322 326 325 323 321 319 318 318 318 318 319 320 320 320 319 319 318 318 319 321 322 322 323 323 323 323 323
325 327 327 326 324 323 324 326 326 325 325 324 323 322 322 324 326 323 322 320 318 317 317 317 317 318 319 319 319 318 318 318 318 320 322 322 322 322 322 322 322 322
326 327 327 325 321 320 323 325 325 325 325 324 322 322 323 324 324 322 321 320 317 316 316 317 318 318 318 318 317 317 318 318 319 320 320 321 321 321 321 321 322 322
325 325 327 326 322 322 323 324 324 324 324 323 321 322 324 324 323 322 321 319 316 316 316 317 317 317 316 316 316 317 318 318 318 319 320 320 320 320 320 320 320 321
323 324 327 327 326 325 325 324 324 324 324 323 321 322 323 323 323 322 321 318 315 316 316 316 316 316 315 315 316 316 317 317 318 318 319 319 319 319 319 319 319 319
324 326 327 327 326 326 325 324 324 324 324 323 322 322 322 322 323 322 320 317 315 316 316 315 316 316 316 317 317 317 317 318 318 318 318 318 318 318 318 318 319 319
324 327 327 325 325 325 325 325 324 324 323 323 322 322 321 320 322 321 319 317 316 315 316 316 317 317 318 319 319 320 320 319 319 320 320 319 320 320 319 319 319 318
324 325 327 326 325 325 325 324 324 324 323 322 322 322 320 319 321 320 319 317 316 316 317 317 318 318 319 320 321 321 322 322 322 322 322 322 322 322 322 321 321 320
325 323 325 327 325 325 324 323 323 323 322 321 321 321 320 319 319 319 319 318 317 317 318 319 319 320 320 320 321 322 322 323 322 322 322 323 323 323 323 323 323 322
325 324 325 325 324 324 323 322 321 320 321 321 321 321 320 320 319 319 319 319 318 319 320 320 321 321 320 320 322 322 323 323 323 323 323 323 323 323 324 323 323 323
325 325 324 323 323 323 323 322 321 320 320 321 321 321 320 320 319 319 319 319 318 319 320 320 319 317 317 319 320 321 321 322 323 323 323 323 323 323 323 323 323 324
322 323 322 322 323 324 322 321 321 320 321 322 321 321 320 320 320 320 320 319 319 320 321 320 316 313 314 316 317 318 319 320 322 323 323 323 322 323 323 323 323 323
321 320 319 319 321 323 321 319 320 320 320 320 320 319 319 319 320 321 320 320 320 320 321 320 317 315 314 315 316 316 316 317 319 322 323 323 323 323 323 323 322 321
322 321 320 319 320 322 320 319 319 320 319 318 317 318 318 316 315 317 319 320 320 320 320 320 319 317 316 315 315 315 315 316 317 320 322 323 323 324 324 322 320 318
322 322 322 321 321 321 320 319 319 319 318 316 315 317 318 316 313 313 314 314 316 317 319 319 319 318 316 315 315 315 316 317 317 318 319 319 319 320 320 321 320 317
322 322 322 322 321 321 320 319 318 317 316 316 315 317 317 315 314 313 311 309 310 312 315 316 316 316 316 316 317 317 317 318 318 318 317 316 316 314 315 319 321 319
319 320 321 321 321 321 320 319 318 316 315 315 315 316 317 314 313 313 314 314 313 314 315 315 314 316 317 316 317 317 317 317 317 317 316 314 314 313 313 316 319 320
317 318 319 319 319 320 319 319 319 319 317 316 315 316 318 317 315 315 316 317 318 318 318 317 316 317 318 318 317 317 317 317 317 316 316 316 316 316 316 317 318 320
314 314 316 317 317 318 318 318 319 319 319 319 318 318 318 319 318 318 317 317 318 319 318 318 318 318 318 318 318 318 318 318 318 318 318 318 318 318 318 318 319 319
Wind_Speed
19 18 17 17 16 16 17 17 15 14 14 13 11 11 10 8 9 9 8 8 7 6 7 8 8 7 6 5 6 4 3 5 6 6 6 5 4 5 6 6 6 6
20 19 18 17 17 19 19 17 15 15 14 13 11 11 10 9 10 10 8 7 6 5 6 6 7 6 4 4 7 6 4 4 4 5 6 5 4 4 5 5 6 6
20 20 20 20 20 20 19 17 15 15 14 13 12 13 12 11 10 10 9 8 6 6 6 7 8 7 6 5 7 6 5 5 5 5 5 5 4 4 4 5 7 8
22 21 21 20 19 18 17 17 16 15 15 14 14 13 12 11 11 10 10 9 7 7 8 8 8 8 7 6 6 5 5 6 5 5 4 3 3 4 5 5 6 7
23 22 20 18 17 17 17 17 15 13 14 14 13 12 12 12 12 10 10 9 7 7 8 9 9 8 8 7 6 6 6 5 4 4 3 3 2 3 5 6 7 7
23 21 19 17 17 18 17 16 13 11 12 13 12 12 12 13 12 11 10 9 8 8 8 9 9 9 8 7 6 6 6 5 5 4 3 3 3 3 4 6 7 7
22 21 20 18 18 18 16 14 13 11 11 11 11 11 13 13 12 11 10 9 8 8 8 9 9 10 9 8 7 7 7 6 6 5 5 5 5 4 5 5 6 6
22 21 19 18 17 18 16 14 13 12 11 10 10 11 13 13 12 11 10 9 8 8 8 8 9 10 10 9 8 9 8 8 7 6 7 7 6 6 6 6 6 6
23 20 18 18 18 18 16 14 14 13 11 11 11 12 13 13 12 11 10 9 8 9 9 9 9 10 10 9 9 10 10 9 8 8 8 8 7 7 7 7 7 6
20 19 17 18 19 18 16 15 14 14 12 11 11 13 14 13 11 11 10 9 9 9 10 10 10 10 9 9 10 10 10 9 9 9 9 8 8 7 7 7 7 7
17 17 16 17 18 17 17 16 14 13 12 12 12 13 13 12 11 11 10 9 10 10 10 11 11 10 10 9 10 10 10 10 9 9 9 9 8 8 7 7 7 7
18 18 16 16 17 16 16 15 14 14 13 12 12 12 13 12 11 11 10 9 10 11 11 11 11 11 10 10 10 10 10 10 10 9 9 9 8 8 7 7 6 7
19 19 17 16 15 15 16 15 14 14 13 12 12 12 12 12 11 11 10 10 10 11 12 12 12 11 11 11 11 11 11 10 10 10 9 9 9 8 7 7 7 7
20 20 20 17 16 15 15 14 13 14 12 11 12 11 12 12 11 11 11 10 11 12 12 13 12 11 11 11 10 10 10 10 10 10 9 9 9 8 8 9 8 8
21 21 21 19 18 16 15 14 13 13 12 11 11 11 11 11 11 12 11 10 11 12 12 13 12 12 13 13 12 11 10 10 10 9 9 9 8 8 8 8 8 8
21 22 21 19 18 17 16 15 14 13 12 11 11 10 11 11 11 12 12 11 12 12 12 12 12 14 16 16 15 14 11 9 9 9 8 8 8 7 8 8 8 9
21 23 20 19 19 19 18 17 16 14 12 11 11 10 10 10 11 12 12 11 12 12 12 12 12 15 18 18 17 16 13 9 8 8 8 8 8 8 8 9 9 9
18 19 19 19 21 21 21 20 19 16 14 12 12 11 9 9 11 12 12 11 12 12 11 11 13 15 17 17 16 15 13 10 8 7 8 8 8 8 8 9 9 10
14 14 14 15 18 21 21 20 19 19 18 16 16 14 12 10 11 12 12 11 11 11 9 9 11 13 14 14 13 13 12 11 8 6 7 8 9 9 9 11 12 14
12 13 13 13 16 21 22 20 19 19 17 15 14 14 13 14 14 13 12 11 11 9 9 10 11 12 12 12 12 11 11 11 10 8 7 8 9 10 12 14 16 16
11 11 12 13 14 18 22 22 21 19 17 15 14 12 11 13 13 13 12 13 13 11 10 11 12 12 12 13 13 12 12 12 12 10 10 10 10 11 14 16 17 18
15 12 11 11 10 13 16 18 19 20 18 16 15 12 11 11 11 11 11 11 10 10 10 11 11 11 12 13 13 13 13 13 13 13 14 14 14 14 15 16 18 20
16 14 13 13 13 12 12 13 16 19 18 17 17 15 14 12 11 11 11 11 11 11 12 13 12 12 13 13 13 13 13 13 14 14 16 17 17 18 17 16 19 22
13 13 13 13 13 13 13 13 14 15 15 16 17 15 14 15 15 14 13 14 15 15 15 16 15 13 13 13 13 13 13 14 15 16 18 20 21 21 21 19 20 23
13 13 12 12 12 11 10 11 12 12 14 15 14 14 16 17 17 17 16 16 16 15 15 15 15 14 12 12 12 13 13 15 15 17 19 20 19 20 21 20 20 22
16 15 13 12 12 12 10 9 8 8 9 9 9 9 12 12 12 14 16 17 17 16 15 15 15 14 11 11 12 13 13 14 14 15 16 15 15 16 18 19 19 19
Wind_Direction
190 193 190 183 182 188 191 182 172 169 160 153 150 147 152 157 151 146 158 172 170 187 199 194 198 196 195 185 143 135 180 172 168 177 178 191 194 175 182 183 169 171
190 191 183 180 182 184 184 180 170 163 159 158 157 152 153 158 155 153 158 159 157 181 183 177 188 178 162 154 129 127 154 146 148 166 165 167 167 165 171 174 164 156
190 187 181 184 187 181 177 174 168 166 165 161 157 157 155 152 152 153 150 146 158 176 164 166 173 154 143 149 135 136 148 139 147 158 159 164 160 157 160 165 160 151
184 182 180 181 180 175 172 169 168 172 168 156 152 155 152 148 152 155 154 155 169 177 167 165 159 147 150 149 137 144 147 145 154 148 143 162 165 164 160 156 157 152
182 183 182 178 174 172 171 166 164 170 167 158 154 153 151 152 156 159 160 161 164 167 164 161 156 154 153 146 146 154 149 152 158 141 139 160 174 184 166 155 160 160
185 185 182 178 175 175 172 164 159 160 164 161 156 154 157 158 158 161 163 158 158 160 161 164 167 164 155 150 155 154 151 161 158 147 158 160 158 176 169 164 167 163
183 178 176 174 174 174 170 164 160 157 162 164 161 166 171 166 160 162 161 156 157 159 161 169 173 169 161 157 155 153 153 156 150 146 152 151 144 146 154 157 152 148
177 169 166 166 167 168 166 162 161 160 163 165 166 174 174 165 162 162 158 157 159 161 165 170 171 168 161 157 159 156 150 145 144 145 143 141 134 131 133 131 128 140
172 164 160 164 165 163 162 161 160 161 164 164 165 168 164 161 163 161 157 159 162 164 166 164 167 167 161 161 163 157 150 146 146 145 141 139 134 131 133 129 127 139
163 158 158 165 164 162 163 164 164 162 161 162 163 164 161 161 165 161 158 164 163 162 164 163 166 166 160 162 162 155 153 150 147 145 141 138 138 138 138 135 134 137
162 161 160 162 161 162 162 164 168 164 160 161 160 161 161 162 166 164 163 168 164 161 163 163 164 163 158 159 158 155 154 150 148 147 143 143 143 139 139 141 143 145
172 170 168 163 160 162 160 160 165 161 158 162 161 161 165 165 169 170 169 169 165 163 164 162 160 159 157 156 154 153 153 152 151 150 148 148 145 139 141 142 142 148
178 174 173 169 164 164 162 159 161 160 159 163 162 163 168 169 172 174 171 170 169 166 164 162 160 159 157 155 154 155 155 155 154 152 153 153 151 153 155 153 152 158
184 178 176 175 171 169 166 162 161 159 159 163 164 166 169 170 174 177 173 171 172 168 166 164 161 161 161 158 159 160 158 158 157 155 159 158 156 162 163 163 169 171
188 184 179 177 173 169 166 166 163 157 158 163 165 166 169 171 175 177 174 172 173 171 170 168 165 168 171 168 167 168 165 165 164 161 165 163 161 167 169 170 174 177
187 188 186 182 179 172 165 165 165 161 159 160 163 167 169 172 177 178 176 175 175 175 174 171 175 184 183 177 173 171 167 172 174 169 171 173 175 179 181 181 183 190
185 187 189 189 185 178 169 167 168 166 159 155 161 168 169 171 176 178 179 178 177 179 179 178 190 196 189 184 181 174 168 171 180 182 181 183 190 196 200 202 201 205
185 185 188 188 183 179 176 172 168 163 160 159 160 162 165 170 175 177 179 178 178 182 184 188 200 199 189 190 191 186 182 179 182 197 201 199 206 212 217 220 219 220
184 183 190 190 184 182 180 177 174 168 166 169 164 158 157 163 171 174 175 177 180 183 184 195 209 203 194 198 200 201 205 198 190 207 220 220 225 226 228 232 230 233
165 174 191 201 199 191 181 182 189 182 171 170 168 162 162 168 172 170 166 172 180 179 181 200 214 211 206 212 214 215 220 216 210 216 226 234 238 238 243 244 240 246
137 152 178 194 203 199 188 188 194 188 179 177 175 169 170 175 178 174 169 175 179 175 185 205 215 216 216 222 228 229 230 230 229 231 236 241 245 248 256 261 259 258
137 139 152 159 165 179 186 189 190 186 182 181 182 184 182 179 181 182 179 184 188 189 203 217 222 223 223 227 232 234 235 237 239 245 250 250 251 255 260 268 271 268
132 138 142 141 140 150 165 172 178 182 181 181 185 190 188 185 190 190 185 194 210 219 227 230 230 232 233 235 239 241 243 246 249 255 261 262 263 265 267 269 272 272
102 114 120 123 130 146 160 165 174 185 190 193 198 199 194 196 204 208 205 208 213 218 226 231 232 235 237 239 243 247 250 253 257 262 266 267 268 269 270 271 272 274
89 96 101 104 111 122 139 157 170 182 191 198 207 210 206 204 207 212 219 226 223 217 220 228 232 233 236 239 242 246 250 255 260 263 266 269 271 272 273 273 271 272
87 89 91 94 99 99 98 107 125 148 164 166 173 192 199 195 193 198 209 221 226 223 223 232 239 239 238 242 248 252 254 257 258 261 267 272 275 277 277 274 275 278